Location: Bayview
(38.0070°N, 122.3188°W)
Time: 18:18:57
(UTC+00:00)

Meteor 1-19 Rocket - Pass Details

Date: 29 June 2022
Orbit: 811 x 924 km, 81.2° (Epoch: 10 August)

Event Time Altitude Azimuth Distance (km) Brightness Sun altitude
Rises 11:59:40 0° 349° (N) 3,562 7.9 -8.9°
Reaches altitude 10° 12:02:08 10° 348° (NNW) 2,623 7.1 -8.5°
Maximum altitude 12:08:09 78° 263° (W) 947 4.4 -7.6°
Drops below altitude 10° 12:14:07 10° 178° (S) 2,606 6.4 -6.6°
Sets 12:16:34 0° 177° (S) 3,537 7.1 -6.3°
